Weather History for Williamtown, NW

Change the Weather History Date:

Thursday, August 22, 2013

  Actual Average Record
Temperature  
Mean Temperature 51 °F -  
Max Temperature 66 °F - - ()
Min Temperature 36 °F - - ()
Degree Days  
Heating Degree Days 14    
Growing Degree Days 1 (Base 50)    
Moisture  
Dew Point 32 °F    
Average Humidity 48    
Maximum Humidity 87    
Minimum Humidity 14    
Precipitation  
Precipitation 0.00 in - - ()
Sea Level Pressure  
Sea Level Pressure 29.94 in    
Wind  
Wind Speed 10 mph ()    
Max Wind Speed 24 mph    
Max Gust Speed 37 mph    
Visibility 6.2 miles    
Events      
T = Trace of Precipitation, MM = Missing Value Source: Averaged Metar Reports

Daily Weather History Graph

Daily Weather History Graph

Search for Another Location

Airport:

Trip Planner

Search our weather history database for the weather conditions in past years. The results will help you decide how hot, cold, wet, or windy it might be!

Date:

Astronomy

Aug. 22, 2013 Rise Set
Actual Time 6:22 AM AEST 5:28 PM AEST
Civil Twilight 5:57 AM AEST 5:54 PM AEST
Nautical Twilight 5:28 AM AEST 6:22 PM AEST
Astronomical Twilight 5:00 AM AEST 6:51 PM AEST
Moon 6:50 PM AEST (8/22) 6:38 AM AEST (8/22)
Length of Visible Light 11h 56m
Length of Day
11h 06m
Full, 99% of the Moon is Illuminated
Aug 22
Full
Aug 28
Last Quarter
Sep 5
New
Sep 13
First Quarter
Sep 19
Full

Hourly Weather History & Observations

Time (AEST) Temp. Windchill Dew Point Humidity Pressure Visibility Wind Dir Wind Speed Gust Speed Precip Events Conditions
12:00 AM 44 °F - 33 °F 54% 30.01 in - West 9.2 mph - -  
12:00 AM 44.6 °F 39.7 °F 33.8 °F 66% 30.01 in 6.2 mi West 9.2 mph - N/A   Unknown
12:30 AM 42.8 °F 38.0 °F 32.0 °F 66% 30.01 in 6.2 mi WNW 8.1 mph - N/A   Unknown
1:00 AM 44 °F - 32 °F 51% 30.01 in - West 9.2 mph - -  
1:00 AM 44.6 °F 39.7 °F 32.0 °F 61% 30.01 in 6.2 mi West 9.2 mph - N/A   Unknown
1:30 AM 44.6 °F 39.7 °F 32.0 °F 61% 30.01 in 6.2 mi WNW 9.2 mph - N/A   Unknown
2:00 AM 42.8 °F 38.0 °F 32.0 °F 66% 29.98 in 6.2 mi WNW 8.1 mph - N/A   Unknown
2:30 AM 42.8 °F 37.0 °F 32.0 °F 66% 29.98 in 6.2 mi WNW 10.4 mph - N/A   Unknown
3:00 AM 42 °F - 33 °F 61% 29.99 in - NW 9.2 mph - -  
3:00 AM 42.8 °F 37.5 °F 33.8 °F 70% 29.98 in 6.2 mi NW 9.2 mph - N/A   Unknown
3:30 AM 42.8 °F 39.3 °F 33.8 °F 70% 29.98 in 6.2 mi NW 5.8 mph - N/A   Unknown
4:00 AM 40 °F - 33 °F 69% 29.98 in - WNW 6.9 mph - -  
4:00 AM 41.0 °F 36.4 °F 33.8 °F 76% 29.98 in 6.2 mi WNW 6.9 mph - N/A   Unknown
4:30 AM 39.2 °F 35.0 °F 33.8 °F 81% 29.98 in 6.2 mi NW 5.8 mph - N/A   Unknown
5:00 AM 41.0 °F 37.1 °F 33.8 °F 76% 29.98 in 6.2 mi NW 5.8 mph - N/A   Unknown
5:30 AM 37.4 °F 34.9 °F 33.8 °F 87% 29.98 in 6.2 mi NW 3.5 mph - N/A   Unknown
6:00 AM 36 °F - 33 °F 83% 29.99 in - WSW 4.6 mph - -  
6:00 AM 37.4 °F 33.8 °F 32.0 °F 81% 29.98 in - WSW 4.6 mph - N/A   Clear
6:30 AM 37.4 °F 33.8 °F 33.8 °F 87% 29.98 in - WNW 4.6 mph - N/A   Clear
7:00 AM 41.0 °F 36.4 °F 35.6 °F 81% 29.98 in - WNW 6.9 mph - N/A   Clear
7:30 AM 41.0 °F 37.1 °F 35.6 °F 81% 29.98 in - WNW 5.8 mph - N/A   Clear
8:00 AM 44.6 °F 39.7 °F 35.6 °F 71% 29.98 in - WNW 9.2 mph - N/A   Clear
8:30 AM 50.0 °F - 35.6 °F 58% 29.98 in - WNW 10.4 mph - N/A   Clear
9:00 AM 52 °F - 35 °F 40% 30.00 in - West 9.2 mph - -  
9:00 AM 51.8 °F - 35.6 °F 54% 29.98 in - West 9.2 mph - N/A   Clear
9:30 AM 55.4 °F - 35.6 °F 47% 29.98 in - NW 11.5 mph - N/A   Clear
10:00 AM 53.6 °F - 33.8 °F 47% 29.98 in - NW 13.8 mph - N/A   Clear
10:30 AM 55.4 °F - 33.8 °F 44% 29.98 in - NW 15.0 mph - N/A   Clear
11:00 AM 59.0 °F - 33.8 °F 39% 29.98 in - WNW 16.1 mph - N/A   Clear
11:30 AM 60.8 °F - 32.0 °F 34% 29.95 in - WNW 18.4 mph - N/A   Clear
12:00 PM 63 °F - 31 °F 19% 29.95 in - WNW 17.3 mph - -  
12:00 PM 62.6 °F - 30.2 °F 30% 29.92 in - WNW 17.3 mph - N/A   Clear
12:13 PM 64.4 °F - 28.4 °F 26% 29.92 in - WNW 21.9 mph 33.4 mph N/A   Clear
12:30 PM 62.6 °F - 26.6 °F 26% 29.92 in - WNW 24.2 mph - N/A   Clear
12:52 PM 64.4 °F - 26.6 °F 24% 29.89 in 6.2 mi WNW 23.0 mph 34.5 mph N/A   Unknown
1:00 PM 65 °F - 28 °F 14% 29.91 in - WNW 24.2 mph - -  
1:00 PM 64.4 °F - 26.6 °F 24% 29.89 in - WNW 24.2 mph - N/A   Clear
1:03 PM 64.4 °F - 26.6 °F 24% 29.89 in - WNW 24.2 mph 36.8 mph N/A   Clear
1:30 PM 62.6 °F - 28.4 °F 27% 29.89 in - West 19.6 mph - N/A   Clear
2:00 PM 62.6 °F - 30.2 °F 30% 29.89 in - West 15.0 mph - N/A   Clear
2:30 PM 62.6 °F - 28.4 °F 27% 29.86 in - WNW 17.3 mph - N/A   Clear
2:43 PM 64.4 °F - 26.6 °F 24% 29.86 in - WNW 17.3 mph 28.8 mph N/A   Clear
3:00 PM 65 °F - 28 °F 14% 29.88 in - WNW 19.6 mph - -   Overcast
3:00 PM 66.2 °F - 26.6 °F 23% 29.86 in - WNW 19.6 mph - N/A   Clear
3:30 PM 62.6 °F - 28.4 °F 27% 29.86 in - WNW 17.3 mph - N/A   Clear
4:00 PM 63 °F - 27 °F 15% 29.87 in - WNW 17.3 mph - -  
4:00 PM 62.6 °F - 26.6 °F 26% 29.86 in - WNW 17.3 mph - N/A   Clear
4:30 PM 62.6 °F - 26.6 °F 26% 29.86 in - WNW 20.7 mph - N/A   Clear
5:00 PM 62.6 °F - 28.4 °F 27% 29.86 in - WNW 15.0 mph - N/A   Clear
5:30 PM 60.8 °F - 30.2 °F 31% 29.89 in - NW 10.4 mph - N/A   Clear
6:00 PM 58 °F - 31 °F 23% 29.90 in - NW 10.4 mph - -   Overcast
6:00 PM 57.2 °F - 30.2 °F 36% 29.89 in - NW 10.4 mph - N/A   Clear
6:30 PM 57.2 °F - 32.0 °F 38% 29.89 in - NW 8.1 mph - N/A   Clear
7:00 PM 55 °F - 32 °F 30% 29.91 in - NW 9.2 mph - -  
7:00 PM 55.4 °F - 32.0 °F 41% 29.89 in - NW 9.2 mph - N/A   Clear
7:30 PM 57.2 °F - 30.2 °F 36% 29.89 in - NW 13.8 mph - N/A   Clear
8:00 PM 53.6 °F - 32.0 °F 44% 29.92 in - WNW 10.4 mph - N/A   Clear
8:30 PM 53.6 °F - 33.8 °F 47% 29.92 in 6.2 mi WNW 6.9 mph - N/A   Mostly Cloudy
9:00 PM 51.8 °F - 33.8 °F 50% 29.92 in 6.2 mi NW 8.1 mph - N/A   Scattered Clouds
9:30 PM 50.0 °F - 33.8 °F 54% 29.92 in 6.2 mi WNW 9.2 mph - N/A   Unknown
10:00 PM 50.0 °F - 35.6 °F 58% 29.92 in 6.2 mi WNW 8.1 mph - N/A   Unknown
10:30 PM 48.2 °F - 35.6 °F 62% 29.92 in 6.2 mi NW 5.8 mph - N/A   Unknown
11:00 PM 46.4 °F 45.2 °F 35.6 °F 66% 29.92 in 6.2 mi West 3.5 mph - N/A   Unknown
11:30 PM 44.6 °F 41.4 °F 35.6 °F 71% 29.89 in 6.2 mi NW 5.8 mph - N/A   Unknown